Regional Weather Roundup
Issued by NWS Northern Indiana

Home | Current Version | Previous Version | Graphics & Text | Print | Product List | Glossary On
Versions: 1 2 3 4 5 6 7 8 9 10 11 12 13 14 15 16 17 18 19 20 21 22 23 24 25 26 27 28 29 30 31 32 33 34 35 36 37 38 39 40 41 42 43 44 45 46 47 48 49 50
000
ASUS43 KIWX 232010
RWRIWX

KIWX WEATHER ROUNDUP
NATIONAL WEATHER SERVICE NORTHERN INDIANA
400 PM EDT THU MAR 23 2017

NOTE: "FAIR" INDICATES FEW OR NO CLOUDS BELOW 12,000 FEET WITH NO
SIGNIFICANT WEATHER AND/OR OBSTRUCTIONS TO VISIBILITY.

* THESE STATIONS ARE NOT UNDER NWS QUALITY CONTROL. THEY ALSO MAY NOT
  REPORT WEATHER SUCH AS PRECIPITATION OR FOG.

INZ001>027-232100-
NORTHERN INDIANA

CITY           SKY/WX    TMP DP  RH WIND       PRES   REMARKS
GARY*          PTSUNNY   48  18  29 SE12G23   30.24F
VALPARAISO     PTSUNNY   47  21  35 S16G23    30.26F
MICHIGAN CITY* CLOUDY    45  21  39 S7G21     30.25F
LAPORTE*       CLOUDY    44  22  40 S15G23    30.26F
KNOX*          MOSUNNY   45  -4  13 SE17      30.26F
SOUTH BEND     PTSUNNY   42  20  41 SE17      30.28F
ELKHART*       SUNNY     45  19  36 S10       30.29F
GOSHEN         SUNNY     46  19  34 SE14G25   30.29F
MONTICELLO*    PTSUNNY   50  25  37 SE8       30.25F
LOGANSPORT*    CLOUDY    48  27  43 SE14G21   30.27F
ROCHESTER*     MOSUNNY   48  23  37 SE12      30.28F
WARSAW*        SUNNY     45  23  42 SE13G18   30.29F
ANGOLA*        MOSUNNY   43  28  56 SE10      30.31F
FORT WAYNE     PTSUNNY   46  22  38 SE14      30.32F
HUNTINGTON*    SUNNY     46  22  39 SE13      30.31F
PERU/GRISSOM   PTSUNNY   47  25  41 SE14      30.25F
MARION*        SUNNY     47  24  41 SE16      30.30F

$$
INZ028>050-232100-
CENTRAL INDIANA

CITY           SKY/WX    TMP DP  RH WIND       PRES   REMARKS
LAFAYETTE      CLOUDY    51  24  34 S9G18     30.24F
KOKOMO*        MOSUNNY   50  28  42 SE14      30.27F
MUNCIE*        SUNNY     51  22  31 SE12G18   30.29F
INDIANAPOLIS   PTSUNNY   54  24  31 SE16      30.26F

$$
MIZ043>046-050>051-056>058-064>065-071>073-077>080-232100-
SOUTHWEST LOWER MICHIGAN

CITY           SKY/WX    TMP DP  RH WIND       PRES   REMARKS
BATTLE CREEK   MOSUNNY   46   8  21 S16G23    30.30F
BENTON HARBOR  PTSUNNY   45  15  30 SE21      30.26F
COLDWATER*     SUNNY     46  14  28 SE13G20   30.31F
HILLSDALE*     CLOUDY    43  14  31 S13G18    30.31F
HOLLAND        CLOUDY    48   9  20 S13       30.27F
GRAND RAPIDS   CLOUDY    46  10  23 SE10      30.28F
KALAMAZOO      PTSUNNY   46   7  20 S14       30.29F
STURGIS*       PTSUNNY   44  20  38 S15G22    30.30F
THREE RIVERS*  FAIR      44  17  33 S10G18    30.30F

$$
OHZ001>008-015>018-024>025-232100-
NORTHWEST OHIO

CITY           SKY/WX    TMP DP  RH WIND       PRES   REMARKS
WAUSEON*       FAIR      50  12  22 SE15G22   30.34F
DEFIANCE       CLOUDY    45  15  30 SE13      30.34F
FINDLAY        SUNNY     51  11  20 S14G20    30.34F
TOLEDO EXPRESS SUNNY     47   7  19 S10       30.35F
TOLEDO METCALF SUNNY     45  25  45 NE8       30.37F
LIMA           MOSUNNY   50  13  22 SE14      30.33F

$$
AND FOR LAKE MICHIGAN COASTAL AND OPEN LAKE BUOY OBSERVATIONS

STATION/POSITION TEMP    WIND        PRES    VSBY  WAVE
                 AIR SEA DIR/SP/G                  HT/PER
                 (F)     (DEG/KT/KT) (MB)    (MI)  (FT/S)
CALUMET HARBOR    46     140/ 12/ 16 1022.8F
MICHIGAN CITY     43     140/ 13/ 18   N/A
BURNS HARBOR      46     140/ 12/ 19 1024.7F

$$
&&




USA.gov is the U.S. government's official web portal to all federal, state and local government web resources and services.